Terminal Aerodrome Forecast
Issued by NWS

Home | Current Version | Previous Version | Text Only | Print | Product List | Glossary On
Versions: 1 2 3 4 5 6 7 8 9 10 11 12 13
000
FTUS46 KSGX 292300
TAFSNA
TAF
KSNA 292333Z 3000/3024 23006KT P6SM SCT080 OVC120
     FM300200 15005KT P6SM SCT020 BKN070 OVC100
     FM300600 14007KT P6SM BKN020 OVC060
     FM301200 14006KT P6SM VCSH OVC020=

USA.gov is the U.S. government's official web portal to all federal, state and local government web resources and services.